Location: Hermaringen
(48.5952°N, 10.2585°E)
Time: 21:20:58
(UTC+00:00)

Spot 4 Rocket - Pass Details

Date: 18 November 2025
Orbit: 769 x 773 km, 98.8° (Epoch: 05 December)

Event Time Altitude Azimuth Distance (km) Brightness Sun altitude
Rises 16:50:11 0° 141° (SE) 3,230 7.0 -12.2°
Reaches altitude 10° 16:52:35 10° 134° (SE) 2,308 6.2 -12.6°
Maximum altitude 16:57:18 40° 66° (ENE) 1,124 4.4 -13.3°
Drops below altitude 10° 17:02:03 10° 358° (N) 2,323 6.4 -14.1°
Sets 17:04:28 0° 351° (N) 3,255 7.2 -14.5°
